Voltar ao catálogo

NOAA 16 DEB

AtivoPO
NORAD 41500·DEBRIS·🇺🇸 United States

Lançado Sep 21, 2000 de Vandenberg Space Force Base

Loading…

Próximas Passagens (próximas 24 horas)

TLE

AtualizadoSource: Space-Track

Época: Sep 14, 2026, 11:26 UTC

1 41500U 00055LY  26257.47706926  .00004381  00000-0  10402-2 0  9998
2 41500  98.9985 141.1939 0025349 235.4156 124.4646 14.54301194548609

Acompanhe NOAA 16 DEB em tempo real com AllMySat

Download on the App Store